Regional Weather Roundup
Issued by NWS

Home | Current Version | Previous Version | Text Only | Print | Product List | Glossary On
Versions: 1 2 3 4 5 6 7 8 9 10 11 12 13 14 15 16 17 18 19 20 21 22 23 24 25 26 27 28 29 30 31 32 33 34 35 36 37 38 39 40 41 42 43 44 45 46 47 48 49 50
000
ASUS43 KOAX 210910
RWRNE

WEATHER ROUNDUP FOR NEBRASKA
NATIONAL WEATHER SERVICE OMAHA NE
400 AM CDT MON APR 21 2014

NOTES: SATELLITE DATA IS BEING USED TO AUGMENT CLOUD COVER ABOVE
       12000 FEET.
       "FAIR" INDICATES FEW OR NO CLOUDS BELOW 12,000 FEET WITH NO
       SIGNIFICANT WEATHER AND/OR OBSTRUCTIONS TO VISIBILITY.

  * THESE STATIONS DO NOT REPORT WEATHER SUCH AS RAIN...SNOW OR FOG.

NEZ001>004-019>022-054>056-211000-
NEBRASKA PANHANDLE

CITY           SKY/WX    TMP DP  RH WIND       PRES   REMARKS
SCOTTSBLUFF    CLEAR     48  25  40 N7        30.21R
ALLIANCE       CLEAR     40  28  62 N7        30.18R
CHADRON        CLEAR     38  30  73 CALM      30.20R
KIMBALL        PTCLDY    44  28  54 N12       30.20R
SIDNEY         PTCLDY    47  29  49 N12       30.19R
$$

NEZ057>060-069>072-079>082-211000-
SOUTHWEST NEBRASKA

CITY           SKY/WX    TMP DP  RH WIND       PRES   REMARKS
NORTH PLATTE   CLEAR     53  34  48 N17       30.05R
IMPERIAL       CLEAR     50  37  61 N12       30.08R
LEXINGTON      MOCLDY    57  54  91 CALM      30.01R
MCCOOK         PTCLDY    52  49  89 N7        30.02S
OGALLALA       PTCLDY    54  27  34 NE10      30.11R
$$

NEZ005>010-023>029-035>040-094-211000-
NORTH CENTRAL NEBRASKA

CITY           SKY/WX    TMP DP  RH WIND       PRES   REMARKS
VALENTINE      PTCLDY    50  28  42 N12       30.11R
AINSWORTH      CLEAR     51  32  48 N14       30.08S
BROKEN BOW     PTCLDY    51  39  63 N16G22    30.02R
O`NEILL        PTCLDY    55  36  49 N15       30.01R
ORD            CLOUDY    55  49  80 NW14      29.98R
THEDFORD       CLEAR     53  29  39 N12       30.09R
$$

NEZ041-046>049-061>064-073>077-083>087-211000-
SOUTH CENTRAL NEBRASKA

CITY           SKY/WX    TMP DP  RH WIND       PRES   REMARKS
GRAND ISLAND   LGT RAIN  59  53  80 SW10      29.96F
AURORA         DRIZZLE   58  55  90 S3        29.97F
HASTINGS       LGT RAIN  59  55  87 W5        30.00F
HEBRON         RAIN      58  56  93 N9        29.98R
HOLDREGE       CLOUDY    57  54  89 E7        30.02S
KEARNEY *      CLOUDY    55  54  94 SW5       30.00F
YORK           CLOUDY    57  55  94 CALM      29.96F
$$

NEZ011>018-030>034-042>045-211000-
NORTHEAST NEBRASKA

CITY           SKY/WX    TMP DP  RH WIND       PRES   REMARKS
NORFOLK        CLOUDY    56  51  84 VRB3      29.91R
BLAIR          CLOUDY    61  55  80 S6        29.94S
COLUMBUS *     CLOUDY    59  52  77 SW8       29.92F
FREMONT        CLOUDY    60  56  86 CALM      29.93F
TEKAMAH        LGT RAIN  61  56  83 SE9       29.92F
$$

NEZ050>053-065>068-078-088>093-211000-
SOUTHEAST NEBRASKA

CITY           SKY/WX    TMP DP  RH WIND       PRES   REMARKS
LINCOLN        LGT RAIN  62  57  83 W7        29.96R
OMAHA EPPLEY   CLOUDY    62  57  83 CALM      29.94S
BEATRICE       MOCLDY    59  55  86 SW5       29.95S
FALLS CITY     MOCLDY    63  57  81 SW10      29.94F
NEBRASKA CITY  PTCLDY    60  59  97 S7        29.94S
PLATTSMOUTH    RAIN      61  57  87 CALM      29.94S
$$

NEZ044-045-051>053-067-211000-
OMAHA AREA

CITY           SKY/WX    TMP DP  RH WIND       PRES   REMARKS
OMAHA EPPLEY   CLOUDY    62  57  83 CALM      29.94S
BLAIR          CLOUDY    61  55  80 S6        29.94S
FREMONT        CLOUDY    60  56  86 CALM      29.93F
MILLARD        DRIZZLE   62  56  83 CALM      29.94S
OFFUTT AFB     CLOUDY    59  59 100 CALM      29.94S
PLATTSMOUTH    RAIN      61  57  87 CALM      29.94S
WAHOO          FAIR      60  55  84 S8        29.92F
$$



USA.gov is the U.S. government's official web portal to all federal, state and local government web resources and services.